Hourly Data Report for September 22, 2017

All times are specified in Local Standard Time (LST). Add 1 hour to adjust for Daylight Saving Time where and when it is observed.

NORTH CAPE
PRINCE EDWARD ISLAND

47°03'29.000" N
63°59'55.000" W
7.60 m
8300516
71987
WNE

Download Data

Hourly Data (September 2017)
Hourly Data Report for September 22, 2017
Temp Definition
°C
Dew Point Temp Definition
°C
Rel Hum Definition
%
Wind Dir Definition
10's deg

Wind Spd Definition
km/h
Visibility Definition
km
Stn Press Definition
kPa
Hmdx Definition


Wind Chill Definition


Weather Definition


TIME
00:00 12.8 8.5 75 11 10   102.24     LegendNANA
01:00 11.8 8.0 78 13 4   102.26     LegendNANA
02:00 10.8 8.4 85 8 1   102.24     LegendNANA
03:00 9.1 7.9 92 18 3   102.22     LegendNANA
04:00 8.4 6.6 89 20 6   102.19     LegendNANA
05:00 10.3 8.8 90 23 5   102.16     LegendNANA
06:00 8.1 6.2 88 24 4   102.19     LegendNANA
07:00 11.3 9.6 89 24 7   102.21     LegendNANA
08:00 13.4 10.9 84 23 8   102.24     LegendNANA
09:00 14.5 11.0 80 25 8   102.24     LegendNANA
10:00 14.7 10.8 77 25 12   102.19     LegendNANA
11:00 15.2 11.1 76 27 12   102.18     LegendNANA
12:00 16.1 11.5 74 27 10   102.12     LegendNANA
13:00 16.5 11.2 71 25 9   102.08     LegendNANA
14:00 16.9 11.0 68 26 6   102.03     LegendNANA
15:00 16.8 11.9 73 7 5   101.97     LegendNANA
16:00 17.2 12.1 72 12 9   101.92     LegendNANA
17:00 18.1 11.2 64 15 6   101.88     LegendNANA
18:00 15.5 10.2 71 17 6   101.85     LegendNANA
19:00 13.8 9.9 77 18 11   101.82     LegendNANA
20:00 14.6 11.7 83 17 10   101.80     LegendNANA
21:00 13.9 11.5 86 17 10   101.73     LegendNANA
22:00 13.9 9.4 75 18 14   101.73     LegendNANA
23:00 14.0 10.1 78 19 13   101.70     LegendNANA

Notes on Data Quality.

Legend

  • E = Estimated
  • M = Missing
  • NA = Not Available
  • ‡ = Partner data that is not subject to review by the National Climate Archives
Date modified: